Flag for U.S.A. Weather past 2 weeks in Bismarck, North Dakota, U.S.A.

Now
68 °F

Overcast.


Feels Like: 68 °F
Forecast: 64 / 89 °F
Wind: No wind

Location: Bismarck Municipal Airport

Current Time: Jul 4, 2015 at 12:34:53 AM

Latest Report: Jul 3, 2015 at 11:52 PM


Visibility: 3 mi

Pressure: 29.88 "Hg (28.15 "Hg at 513m altitude)

Humidity: 84%

Dew point: 63 °F

Location of BismarckLocation

Historic Weather in Bismarck — Graph

°F

Bismarck temperature yesterday

Maximum temperature yesterday: 81 °F (at 2:52 PM)
Minimum temperature yesterday: 63 °F (at 3:52 AM)
Average temperature yesterday: 71 °F

Past Weeks' High & Low Weather Summary

 TemperatureHumidityPressure
High92 °F (Jun 29, 3:52 PM)100% (Jun 22, 3:52 AM)30.17 "Hg (Jun 22, 3:52 AM)
Low50 °F (Jun 23, 5:52 AM)28% (Jun 29, 3:52 PM)29.66 "Hg (Jun 19, 8:52 PM)
Average70 °F71%29.95 "Hg
* Reported Jun 18 10:52 PM — Jul 3 10:52 PM, Bismarck, Weather by CustomWeather, © 2015

Note: Actual official high and low records may vary slightly from our data, if they occured in-between our weather recording intervals... More about our weather records

Advertising

Bismarck weather history for previous 24 hours

 ConditionsComfort  
Time TempWeatherWind HumidityBarometerVisibility
10:52 PM
Fri, Jul 3
67 °FFog.3 mph87%29.88 "Hg4 mi
9:52 PM70 °FOvercast.5 mph81%29.88 "Hg3 mi
8:52 PM72 °FOvercast.5 mph81%29.88 "Hg3 mi
7:52 PM78 °FPartly sunny.7 mph62%29.89 "Hg4 mi
6:52 PM80 °FScattered clouds.7 mph54%29.90 "Hg4 mi
5:52 PM81 °FScattered clouds.6 mph54%29.91 "Hg3 mi
4:52 PM81 °FPartly sunny.7 mph54%29.92 "Hg3 mi
3:52 PM81 °FHaze.No wind54%29.93 "Hg3 mi
2:52 PM81 °FScattered clouds.No wind51%29.94 "Hg4 mi
1:52 PM79 °FPartly sunny.No wind56%29.96 "Hg3 mi
12:52 PM80 °FPartly sunny.3 mph54%29.97 "Hg3 mi
11:52 AM78 °FPartly sunny.6 mph60%29.98 "Hg3 mi
10:52 AM76 °FScattered clouds.3 mph67%29.98 "Hg3 mi
9:52 AM72 °FPartly sunny.No wind76%29.99 "Hg2 mi
8:52 AM68 °FOvercast.No wind84%29.99 "Hg2 mi
8:03 AM65 °FFog.No wind91%30.02 "Hg2 mi
7:52 AM64 °FFog.5 mph94%30.00 "Hg2 mi
7:02 AM63 °FFog.6 mph93%30.02 "Hg1 mi
6:52 AM63 °FFog.3 mph93%29.99 "Hg1 mi
5:52 AM63 °FFog.3 mph93%29.97 "Hg2 mi
4:52 AM63 °FFog.3 mph97%29.97 "Hg2 mi
3:52 AM63 °FFog.6 mph93%29.97 "Hg2 mi
2:52 AM64 °FFog.3 mph94%29.97 "Hg2 mi
1:52 AM66 °FFog.No wind90%29.97 "Hg3 mi
12:52 AM66 °FFog.3 mph90%29.97 "Hg3 mi
Weather by CustomWeather, © 2015

See weather overviewHow to use our weather pages